FW1194 Weather Reports


time (UTC)temp
C
wind
direction
speed
KPH
gust
KPH
rain 1hr
cm
rain 24hr
cm
rain mn
cm
humidity
%
barometer
mb
20260504070217 11 225 3.2 4.8 0.00 0.00 0.00 70 1003.7
20260504060217 12 248 4.8 6.4 0.00 0.00 0.00 67 1004.3
20260504050217 13 0 6.4 9.7 0.00 0.00 0.00 65 1004.5
20260504045236 13 248 6.4 8.0 0.00 0.00 0.00 64 1004.5
20260504044215 13 0 6.4 9.7 0.00 0.00 0.00 63 1004.5
20260504043215 13 180 9.7 20.9 0.00 0.00 0.00 63 1004.4
20260504042236 13 180 8.0 14.5 0.00 0.00 0.00 62 1004.5
20260504041236 14 0 4.8 8.0 0.00 0.00 0.00 61 1004.4
20260504040218 14 203 6.4 9.7 0.00 0.00 0.00 60 1004.4
20260504035237 14 225 4.8 9.7 0.00 0.00 0.00 60 1004.4
20260504034218 15 203 4.8 8.0 0.00 0.00 0.00 59 1004.6
20260504033217 15 203 6.4 11.3 0.00 0.00 0.00 59 1004.8
20260504032218 15 203 6.4 9.7 0.00 0.00 0.00 59 1004.8
20260504031218 15 180 4.8 8.0 0.00 0.00 0.00 59 1004.9
20260504030218 15 0 4.8 8.0 0.00 0.00 0.00 59 1004.9
20260504025217 15 0 4.8 6.4 0.00 0.00 0.00 59 1005.0
20260504024217 15 0 4.8 6.4 0.00 0.00 0.00 59 1005.0
20260504023217 15 203 4.8 6.4 0.00 0.00 0.00 59 1005.0
20260504022217 15 180 4.8 9.7 0.00 0.00 0.00 58 1005.0
20260504021218 16 0 6.4 8.0 0.00 0.00 0.00 57 1004.9
20260504020217 16 203 3.2 4.8 0.00 0.00 0.00 55 1004.8
20260504015217 16 0 6.4 9.7 0.00 0.00 0.00 54 1004.6
20260504014217 16 225 3.2 6.4 0.00 0.00 0.00 53 1004.6
20260504013218 16 203 6.4 11.3 0.00 0.00 0.00 52 1004.4
20260504012217 17 225 6.4 12.9 0.00 0.00 0.00 51 1004.5
20260504011238 17 203 8.0 14.5 0.00 0.00 0.00 50 1004.4
20260504010217 17 203 4.8 6.4 0.00 0.00 0.00 49 1004.3
20260504005218 18 203 6.4 8.0 0.00 0.00 0.00 48 1004.3
20260504004238 18 0 8.0 12.9 0.00 0.00 0.00 47 1004.4
20260504003217 19 225 9.7 14.5 0.00 0.00 0.00 46 1004.4
20260504002217 19 0 9.7 16.1 0.00 0.00 0.00 44 1004.4
20260504001217 20 248 12.9 17.7 0.00 0.00 0.00 43 1004.5
20260504000219 20 225 11.3 17.7 0.00 0.00 0.00 43 1004.4
20260503235237 20 248 16.1 24.1 0.00 0.00 0.00 42 1004.4
20260503234218 20 0 16.1 24.1 0.00 0.00 0.00 41 1004.4
20260503233217 20 248 12.9 20.9 0.00 0.00 0.00 41 1004.4
20260503232218 20 0 16.1 20.9 0.00 0.00 0.00 40 1004.5
20260503231217 20 225 27.4 37.0 0.00 0.00 0.00 40 1004.6
20260503230257 20 0 20.9 29.0 0.00 0.00 0.00 40 1004.6
20260503225217 20 0 19.3 32.2 0.00 0.00 0.00 41 1004.7
20260503224217 20 0 12.9 22.5 0.00 0.00 0.00 41 1004.8
20260503223217 20 0 20.9 30.6 0.00 0.00 0.00 40 1004.8
20260503222217 20 225 17.7 24.1 0.00 0.00 0.00 39 1004.9
20260503221217 20 225 16.1 27.4 0.00 0.00 0.00 40 1004.9
20260503220217 20 180 17.7 25.7 0.00 0.00 0.00 40 1005.0
20260503215217 20 225 11.3 16.1 0.00 0.00 0.00 40 1005.2
20260503214217 20 0 17.7 27.4 0.00 0.00 0.00 40 1005.3
20260503213217 20 0 16.1 22.5 0.00 0.00 0.00 40 1005.4
20260503212217 20 0 19.3 29.0 0.00 0.00 0.00 40 1005.7
20260503211217 19 225 27.4 43.5 0.00 0.00 0.00 40 1005.8
20260503210217 19 203 27.4 43.5 0.00 0.00 0.00 40 1006.0
20260503205237 18 203 24.1 37.0 0.00 0.00 0.00 39 1006.2
20260503204237 19 225 19.3 29.0 0.00 0.00 0.00 39 1006.3
20260503203217 18 225 19.3 33.8 0.00 0.00 0.00 40 1006.6
20260503202217 17 180 19.3 27.4 0.00 0.00 0.00 41 1006.9
20260503201237 18 203 25.7 40.2 0.00 0.00 0.00 41 1006.9
20260503200217 18 180 19.3 27.4 0.00 0.00 0.00 41 1007.1
20260503195217 18 203 24.1 43.5 0.00 0.00 0.00 42 1007.3
20260503194216 17 203 20.9 33.8 0.00 0.00 0.00 46 1007.5
20260503193217 17 203 14.5 30.6 0.00 0.00 0.00 48 1007.6
20260503192237 17 203 14.5 27.4 0.00 0.00 0.00 50 1007.5
20260503191216 16 203 24.1 35.4 0.00 0.00 0.00 51 1007.7
20260503190217 16 158 19.3 30.6 0.00 0.00 0.00 51 1007.6
20260503185217 16 180 16.1 30.6 0.00 0.00 0.00 52 1008.0
20260503184217 15 180 19.3 32.2 0.00 0.00 0.00 54 1008.2
20260503183217 15 180 16.1 30.6 0.00 0.00 0.00 54 1008.3
20260503182217 14 180 11.3 24.1 0.00 0.00 0.00 55 1008.4
20260503181237 13 203 17.7 27.4 0.00 0.00 0.00 56 1008.7
20260503180216 13 203 17.7 27.4 0.00 0.00 0.00 59 1008.9
20260503175237 12 180 12.9 17.7 0.00 0.00 0.00 63 1008.9
20260503174217 12 180 12.9 20.9 0.00 0.00 0.00 64 1009.5
20260503173217 12 180 16.1 29.0 0.00 0.00 0.00 64 1009.9
20260503172217 12 180 11.3 25.7 0.00 0.00 0.00 67 1010.3
20260503171217 12 180 9.7 14.5 0.00 0.00 0.00 67 1010.8
20260503170217 11 180 14.5 22.5 0.00 0.00 0.00 67 1011.0
20260503150216 11 203 11.3 24.1 0.00 0.00 0.00 61 1012.1
20260503140216 10 225 8.0 11.3 0.00 0.00 0.00 59 1012.8
20260503131216 9 225 17.7 20.9 0.00 0.00 0.00 59 1013.1
20260503130216 9 203 16.1 19.3 0.00 0.00 0.00 59 1013.2
20260503120216 8 203 12.9 16.1 0.00 0.00 0.00 58 1013.1
20260503110216 7 225 11.3 14.5 0.00 0.00 0.00 60 1012.8
20260503100216 7 203 11.3 17.7 0.00 0.00 0.00 62 1013.0
20260503090215 6 225 8.0 12.9 0.00 0.00 0.00 61 1013.3
20260503081218 6 225 8.0 11.3 0.00 0.00 0.00 59 1013.6
20260503080217 6 203 8.0 9.7 0.00 0.00 0.00 59 1013.6